Погода в Ильинско-Подомском

Россия / Архангельская область     61°06′56″N   47°58′40″E
темп.,
°C
ветер,
м/с
пор.,
м/с
влажн.,
%
обл.,
%
осадки,
мм/ч
давл.,
гПа
погр.,
м
19 апреля, пн
пн1900:00−3всв28750 0.0 1037192
03:00−3в25775 0.0 1038121
06:00−2вюв23695 0.0 1038180
09:00+3в23465 0.0 10381196
12:00+5в23387 0.0 10371486
15:00+6в22360 0.0 10361517
18:00+4в11510 0.0 103515
21:000юв11630 0.0 103610
20 апреля, вт
вт2000:00−1ю11650 0.0 103610
03:00−2ююз11663 0.0 103710
06:000юз12594 0.0 103699
09:00+6ююз11415 0.0 1035725
12:00+8ююз12355 0.0 10341169
15:00+9ю12335 0.0 10321296
18:00+7ююв11475 0.0 103111
21:00+2юв22590 0.0 103112
21 апреля, ср
ср2100:00+1ююв22680 0.0 103135
03:000ююв24752 0.0 103059
06:00+2юв396566 0.0 1029248
09:00+7юв5104097 0.0 1027900
12:00+10юв61032100 0.0 10231283
15:00+10юв61439100 0.0 10211415
18:00+8ююв61548100 0.0 10191463
21:00+5ююв71772100 0.3 10181214
22 апреля, чт
чт2200:00+4ююв61486100 0.1 1017992
03:00+3ююв61493100 0.1 1017973
06:00+4ю61390100 0.0 10171034
09:00+5ю61282100 0.0 10181077
12:00+8ю61162100 0.1 10181568
15:00+6ю61186100 0.1 10191190
18:00+6ю51182100 0.0 10191039
21:00+6ю51287100 0.3 10201084
23 апреля, пт
пт2300:00+6ююз51187100 0.1 1020959
03:00+4ю4129463 0.1 1022443
06:00+5ю4119135 0.0 1023394
09:00+9ю577021 0.0 1024776
12:00+13ю57525 0.0 10231479
15:00+14ю5650100 0.1 10231745
18:00+10ююв4970100 0.1 1023564
21:00+9юв41179100 0.1 1023516